{"data":{"norad_id":66823,"intl_designator":"2025-280C","name":"STARLINK-35957","alt_names":[],"object_type":"PAYLOAD","status":"ACTIVE","operator":null,"country":"US","launch_date":"2025-12-02","launch_site_code":"AFWTR","launch_vehicle":null,"mission":null,"orbit_class":"UNKNOWN","rcs_meters":null,"size_class":null,"mass_kg":null,"dimensions":null,"purposes":["comms"],"wikipedia_slug":null,"has_3d_model":false,"image_url":null,"decayed_at":null,"tle_current":{"epoch":"2026-05-25T02:18:29.752416Z","epoch_age_seconds":70708,"freshness":"FRESH","line1":"1 66823U 25280C   26145.09617769 -.00003478  00000+0 -28392-3 0  9995","line2":"2 66823  70.0008 141.6973 0004030 262.8584  97.2117 14.98312071 27524","mean_motion":14.98312071,"eccentricity":0.000403,"inclination_deg":70.0008,"raan_deg":141.6973,"arg_perigee_deg":262.8584,"mean_anomaly_deg":97.2117,"bstar":-0.00028392,"rev_number":2752,"period_min":96.10814915473,"perigee_km":569.31038537163,"apogee_km":574.91228553001,"semimajor_km":6950.2483354508,"source":"CELESTRAK","updated_at":"2026-05-25T13:38:21.333725Z"}}}